Tracking 22458 objects as of 2-Mar-2021
HD Live streaming from Space Station
objects crossing your sky now

COSMOS 249 DEB

Track COSMOS 249 DEB now!
10-day predictions


NORAD ID: 18602
Int'l Code: 1968-091DG
Perigee: 750.3 km
Apogee: 1,793.6 km
Inclination: 62.2 °
Period: 110.8 minutes
Semi major axis: 7642 km
RCS: 0.0163 m2 (small)
Launch date: October 20, 1968
Source: Commonwealth of Independent States (former USSR) (CIS)
Launch site: TYURATAM MISSILE AND SPACE COMPLEX (TTMTR)

Note: This is SATELLITE DEBRIS
aabbcc
Your satellite tracking list
Your tracking list is empty




NASA's NSSDC Master Catalog

Two Line Element Set (TLE):
1 18602U 68091DG  21060.25916654  .00000233  00000-0  35784-3 0  9996
2 18602  62.2369 347.9364 0682518 174.6462 345.9979 12.99308304393429
Source of the keplerian elements: AFSPC